Regional Weather Roundup
Issued by NWS

Current Version | Previous Version | Text Only | Print | Product List | Glossary On
Versions: 1 2 3 4 5 6 7 8 9 10 11 12 13 14 15 16 17 18 19 20 21 22 23 24 25 26 27
000
ASUS44 KJAN 301210
RWRMS

MISSISSIPPI HOURLY WEATHER ROUNDUP
NATIONAL WEATHER SERVICE JACKSON MS
700 AM CDT FRI SEP 30 2022

NOTE: "FAIR: INDICATES FEW OR NO CLOUDS BELOW 12,000 FEET WITH NO
SIGNIFICANT WEATHER AND/OR OBSTRUCTIONS TO VISIBILITY.

MSZ001>002-007>008-010>013-018>021-025>028-034>036-301300-
NORTHWEST MISSISSIPPI

CITY           SKY/WX    TMP DP  RH WIND       PRES   REMARKS
BATESVILLE     FAIR      46  45  93 CALM      30.12S
CLARKSDALE     CLEAR     46  46 100 N7        30.14R
CLEVELAND      FAIR     N/A N/A N/A N7        30.12S
GREENWOOD      CLEAR     49  45  86 N3        30.10R
6HR MIN TEMP:  46; 6HR MAX TEMP:  52;

GREENVILLE     CLEAR     52  44  74 N8        30.10S
6HR MIN TEMP:  52; 6HR MAX TEMP:  60;

OLIVE BRANCH   CLEAR     48  46  93 N5        30.13S
OXFORD         CLEAR     48  45  87 NE3       30.14S
TUNICA         CLEAR     45  45 100 N6        30.15R
$$

MSZ003>006-009-014>017-022>024-029>033-037>039-301300-
NORTHEAST MISSISSIPPI

CITY           SKY/WX    TMP DP  RH WIND       PRES   REMARKS
ABERDEEN       FAIR      46  46 100 N3        30.11R
COLUMBUS AFB   CLEAR     48  45  90 NW5       30.06S
6HR MIN TEMP:  48; 6HR MAX TEMP:  53;

CORINTH        CLEAR     45  45 100 CALM      30.13R
GOLDN TRIANGLE CLEAR     46  45  96 NW3       30.09R
STARKVILLE     FAIR      48  46  93 CALM      30.08R
TUPELO         CLEAR     49  44  83 N9        30.11R
6HR MIN TEMP:  49; 6HR MAX TEMP:  54;

$$

MSZ040-058-301300-
CENTRAL MISSISSIPPI

CITY           SKY/WX    TMP DP  RH WIND       PRES   REMARKS
JACKSON INTL   CLEAR     54  46  74 NE9       30.08R
6HR MIN TEMP:  51; 6HR MAX TEMP:  57;

JACKSON HAWKNS CLEAR     54  46  74 NE5       30.08R
6HR MIN TEMP:  54; 6HR MAX TEMP:  60;

MADISON        FAIR      48  48 100 CALM      30.07S
MERIDIAN KEY   CLEAR     48  46  93 N6        30.06R
6HR MIN TEMP:  48; 6HR MAX TEMP:  51;

MERIDIAN NAS   CLEAR     49  45  86 NW3       30.07R
6HR MIN TEMP:  48; 6HR MAX TEMP:  56;

RAYMOND        FAIR      45  45 100 CALM      30.08R FOG
VICKSBURG VKS  CLEAR     46  46 100 CALM      30.07R
$$

MSZ059>079-301300-
SOUTH MISSISSIPPI

CITY           SKY/WX    TMP DP  RH WIND       PRES   REMARKS
BROOKHAVEN     FAIR      48  48 100 CALM      30.07R
HATTIESBURG      N/A    N/A N/A N/A MISG      30.05R
LAUREL         CLEAR     49  46  89 CALM      30.05R
MCCOMB         CLEAR     53  45  74 N7        30.05R
6HR MIN TEMP:  52; 6HR MAX TEMP:  55;

NATCHEZ        CLEAR     45  44  97 E6        30.08R
6HR MIN TEMP:  45; 6HR MAX TEMP:  51;

PINE BELT      CLEAR     51  48  89 N8        30.05R
6HR MIN TEMP:  51; 6HR MAX TEMP:  55;

$$

MSZ080>082-301300-
COASTAL MISSISSIPPI

CITY           SKY/WX    TMP DP  RH WIND       PRES   REMARKS
BILOXI         CLEAR     56  47  73 NE7       29.98R
6HR MIN TEMP:  55; 6HR MAX TEMP:  60;

PASCAGOULA     MOCLDY    54  49  83 N3        30.00R
6HR MIN TEMP:  53; 6HR MAX TEMP:  56;

GULFPORT       CLEAR     55  47  74 N6        30.00R
6HR MIN TEMP:  54; 6HR MAX TEMP:  60;

$$

LAZ007>009-015>016-023>026-301300-
NORTHEAST LOUISIANA

CITY           SKY/WX    TMP DP  RH WIND       PRES   REMARKS
BASTROP        FAIR      49  46  88 CALM      30.12R
TALLULAH/VBURG CLEAR     51  46  83 N3        30.09R
6HR MIN TEMP:  51; 6HR MAX TEMP:  58;

VIDALIA        FAIR      49  45  87 CALM      30.08R
$$



USA.gov is the U.S. government's official web portal to all federal, state and local government web resources and services.